Westminster, MD

12:18 AM EDT on October 20, 2017 (GMT -0400)
Carroll County Regional-Poage

Weather History for KDMW - November, 2013

Change the Weather History Date:

Saturday, November 2, 2013

  Actual Average (KTHV) Record (KTHV)
Temperature  
Mean Temperature 55 °F -  
Max Temperature 62 °F 74 °F 78 °F (2001)
Min Temperature 48 °F 29 °F 25 °F (2010)
Degree Days  
Heating Degree Days 10    
Growing Degree Days 5 (Base 50)    
Moisture  
Dew Point 45 °F    
Average Humidity 68    
Maximum Humidity 94    
Minimum Humidity 45    
Precipitation  
Precipitation 0.00 in - - ()
Sea Level Pressure  
Sea Level Pressure 29.74 in    
Wind  
Wind Speed 5 mph (WNW)    
Max Wind Speed 17 mph    
Max Gust Speed 24 mph    
Visibility 10 miles    
Events      
Averages and records for this station are not official NWS values.
T = Trace of Precipitation, MM = Missing Value Source: NWS Daily Summary

Daily Weather History Graph

Daily Weather History Graph

Search for Another Location

Airport or City:

Trip Planner

Search our weather history database for the weather conditions in past years. The results will help you decide how hot, cold, wet, or windy it might be!

Date:

Astronomy

Nov. 02, 2013 Rise Set
Actual Time 7:37 AM EDT 6:04 PM EDT
Civil Twilight 7:09 AM EDT 6:32 PM EDT
Nautical Twilight 6:37 AM EDT 7:04 PM EDT
Astronomical Twilight 6:06 AM EDT 7:36 PM EDT
Moon 6:32 AM EDT (11/2) 5:34 PM EDT (11/2)
Length of Visible Light 11h 23m
Length of Day
10h 27m
Waning Crescent, 1% of the Moon is Illuminated
Nov 2
Waning Crescent
Nov 3
New
Nov 10
First Quarter
Nov 17
Full
Nov 25
Last Quarter

Hourly Weather History & Observations

Time (EDT) Temp. Dew Point Humidity Pressure Visibility Wind Dir Wind Speed Gust Speed Precip Events Conditions
12:15 AM 57.2 °F 50.0 °F 77% 29.68 in 10.0 mi Calm Calm - N/A   Clear
12:35 AM 57.2 °F 48.2 °F 72% 29.68 in 10.0 mi NW 3.5 mph - N/A   Scattered Clouds
12:55 AM 57.2 °F 48.2 °F 72% 29.69 in 10.0 mi NW 4.6 mph - N/A   Scattered Clouds
1:15 AM 57.2 °F 48.2 °F 72% 29.68 in 10.0 mi NNW 3.5 mph - N/A   Mostly Cloudy
1:35 AM 57.2 °F 48.2 °F 72% 29.69 in 10.0 mi NNW 3.5 mph - N/A   Overcast
1:55 AM 57.2 °F 48.2 °F 72% 29.69 in 10.0 mi NNW 5.8 mph - N/A   Mostly Cloudy
2:15 AM 57.2 °F 46.4 °F 67% 29.68 in 10.0 mi NW 4.6 mph - N/A   Mostly Cloudy
2:35 AM 57.2 °F 48.2 °F 72% 29.68 in 10.0 mi Calm Calm - N/A   Overcast
2:55 AM 57.2 °F 48.2 °F 72% 29.68 in 10.0 mi North 3.5 mph - N/A   Overcast
3:15 AM 57.2 °F 48.2 °F 72% 29.68 in 10.0 mi Calm Calm - N/A   Overcast
3:35 AM 55.4 °F 48.2 °F 77% 29.68 in 10.0 mi Calm Calm - N/A   Overcast
3:55 AM 57.2 °F 48.2 °F 72% 29.68 in 10.0 mi Calm Calm - N/A   Overcast
4:15 AM 55.4 °F 48.2 °F 77% 29.68 in 10.0 mi Calm Calm - N/A   Overcast
4:35 AM 55.4 °F 48.2 °F 77% 29.68 in 10.0 mi Calm Calm - N/A   Overcast
4:55 AM 53.6 °F 48.2 °F 82% 29.68 in 10.0 mi Calm Calm - N/A   Mostly Cloudy
5:15 AM 53.6 °F 48.2 °F 82% 29.69 in 10.0 mi Calm Calm - N/A   Scattered Clouds
5:35 AM 53.6 °F 48.2 °F 82% 29.69 in 10.0 mi Calm Calm - N/A   Scattered Clouds
5:55 AM 51.8 °F 48.2 °F 88% 29.69 in 10.0 mi Calm Calm - N/A   Scattered Clouds
6:15 AM 51.8 °F 48.2 °F 88% 29.70 in 10.0 mi Calm Calm - N/A   Scattered Clouds
6:35 AM 51.8 °F 48.2 °F 88% 29.70 in 10.0 mi Calm Calm - N/A   Mostly Cloudy
6:55 AM 51.8 °F 48.2 °F 88% 29.70 in 10.0 mi Calm Calm - N/A   Mostly Cloudy
7:15 AM 50.0 °F 48.2 °F 94% 29.70 in 10.0 mi Calm Calm - N/A   Overcast
7:35 AM 51.8 °F 48.2 °F 88% 29.70 in 10.0 mi Calm Calm - N/A   Overcast
7:55 AM 51.8 °F 48.2 °F 88% 29.70 in 10.0 mi Calm Calm - N/A   Overcast
8:15 AM 51.8 °F 48.2 °F 88% 29.71 in 10.0 mi Calm Calm - N/A   Overcast
8:35 AM 51.8 °F 48.2 °F 88% 29.71 in 10.0 mi Calm Calm - N/A   Mostly Cloudy
8:55 AM 53.6 °F 48.2 °F 82% 29.72 in 10.0 mi Calm Calm - N/A   Clear
9:15 AM 55.4 °F 48.2 °F 77% 29.73 in 10.0 mi Calm Calm - N/A   Clear
9:35 AM 59.0 °F 48.2 °F 67% 29.73 in 10.0 mi SW 3.5 mph - N/A   Scattered Clouds
9:55 AM 59.0 °F 48.2 °F 67% 29.73 in 10.0 mi WSW 4.6 mph - N/A   Clear
10:15 AM 60.8 °F 48.2 °F 63% 29.72 in 10.0 mi WSW 9.2 mph - N/A   Scattered Clouds
10:35 AM 60.8 °F 48.2 °F 63% 29.72 in 10.0 mi West 8.1 mph - N/A   Scattered Clouds
10:55 AM 60.8 °F 48.2 °F 63% 29.71 in 10.0 mi West 9.2 mph - N/A   Scattered Clouds
11:15 AM 60.8 °F 48.2 °F 63% 29.72 in 10.0 mi West 11.5 mph - N/A   Clear
11:35 AM 60.8 °F 48.2 °F 63% 29.71 in 10.0 mi West 10.4 mph 16.1 mph N/A   Clear
11:55 AM 62.6 °F 48.2 °F 59% 29.71 in 10.0 mi WNW 12.7 mph 19.6 mph N/A   Scattered Clouds
12:15 PM 62.6 °F 48.2 °F 59% 29.71 in 10.0 mi West 15.0 mph 19.6 mph N/A   Scattered Clouds
12:35 PM 62.6 °F 46.4 °F 55% 29.72 in 10.0 mi West 9.2 mph - N/A   Clear
12:55 PM 62.6 °F 46.4 °F 55% 29.72 in 10.0 mi West 10.4 mph 18.4 mph N/A   Scattered Clouds
1:15 PM 62.6 °F 46.4 °F 55% 29.72 in 10.0 mi WNW 13.8 mph - N/A   Mostly Cloudy
1:35 PM 62.6 °F 46.4 °F 55% 29.71 in 10.0 mi West 11.5 mph 24.2 mph N/A   Scattered Clouds
1:55 PM 62.6 °F 46.4 °F 55% 29.71 in 10.0 mi WNW 12.7 mph 20.7 mph N/A   Scattered Clouds
2:15 PM 62.6 °F 46.4 °F 55% 29.71 in 10.0 mi WNW 13.8 mph 18.4 mph N/A   Scattered Clouds
2:35 PM 60.8 °F 44.6 °F 55% 29.72 in 10.0 mi WNW 13.8 mph 19.6 mph N/A   Mostly Cloudy
2:55 PM 62.6 °F 46.4 °F 55% 29.71 in 10.0 mi West 17.3 mph 23.0 mph N/A   Mostly Cloudy
3:15 PM 60.8 °F 48.2 °F 63% 29.73 in 10.0 mi West 12.7 mph 19.6 mph N/A   Mostly Cloudy
3:35 PM 59.0 °F 46.4 °F 63% 29.73 in 10.0 mi NW 12.7 mph 19.6 mph N/A   Overcast
3:55 PM 59.0 °F 46.4 °F 63% 29.72 in 10.0 mi WNW 10.4 mph - N/A   Mostly Cloudy
4:15 PM 59.0 °F 46.4 °F 63% 29.73 in 10.0 mi NW 10.4 mph 17.3 mph N/A   Scattered Clouds
4:35 PM 59.0 °F 39.2 °F 48% 29.74 in 10.0 mi WNW 8.1 mph 17.3 mph N/A   Scattered Clouds
4:55 PM 57.2 °F 41.0 °F 55% 29.75 in 10.0 mi West 10.4 mph - N/A   Scattered Clouds
5:15 PM 59.0 °F 37.4 °F 45% 29.75 in 10.0 mi WNW 15.0 mph 19.6 mph N/A   Mostly Cloudy
5:35 PM 57.2 °F 37.4 °F 48% 29.76 in 10.0 mi WNW 12.7 mph 19.6 mph N/A   Scattered Clouds
5:55 PM 55.4 °F 37.4 °F 51% 29.76 in 10.0 mi WNW 8.1 mph - N/A   Clear
6:15 PM 55.4 °F 37.4 °F 51% 29.77 in 10.0 mi West 8.1 mph - N/A   Scattered Clouds
6:35 PM 53.6 °F 37.4 °F 54% 29.78 in 10.0 mi WNW 11.5 mph - N/A   Scattered Clouds
6:55 PM 53.6 °F 39.2 °F 58% 29.79 in 10.0 mi WNW 10.4 mph - N/A   Scattered Clouds
7:15 PM 53.6 °F 39.2 °F 58% 29.80 in 10.0 mi WNW 8.1 mph - N/A   Clear
7:35 PM 51.8 °F 39.2 °F 62% 29.81 in 10.0 mi WNW 9.2 mph - N/A   Clear
7:55 PM 51.8 °F 39.2 °F 62% 29.82 in 10.0 mi West 8.1 mph - N/A   Clear
8:15 PM 51.8 °F 39.2 °F 62% 29.82 in 10.0 mi WNW 8.1 mph - N/A   Clear
8:35 PM 51.8 °F 39.2 °F 62% 29.83 in 10.0 mi WNW 8.1 mph - N/A   Clear
8:55 PM 51.8 °F 39.2 °F 62% 29.83 in 10.0 mi West 11.5 mph - N/A   Clear
9:15 PM 51.8 °F 39.2 °F 62% 29.84 in 10.0 mi West 10.4 mph - N/A   Scattered Clouds
9:35 PM 50.0 °F 39.2 °F 66% 29.85 in 10.0 mi WNW 10.4 mph - N/A   Scattered Clouds
9:55 PM 50.0 °F 39.2 °F 66% 29.85 in 10.0 mi WNW 11.5 mph - N/A   Scattered Clouds
10:15 PM 50.0 °F 39.2 °F 66% 29.85 in 10.0 mi WNW 9.2 mph - N/A   Clear
10:35 PM 50.0 °F 39.2 °F 66% 29.86 in 10.0 mi West 9.2 mph - N/A   Clear
10:55 PM 50.0 °F 39.2 °F 66% 29.86 in 10.0 mi West 8.1 mph - N/A   Clear
11:15 PM 48.2 °F 39.2 °F 71% 29.87 in 10.0 mi West 5.8 mph - N/A   Clear
11:35 PM 48.2 °F 39.2 °F 71% 29.87 in 10.0 mi West 5.8 mph - N/A   Clear
11:55 PM 48.2 °F 39.2 °F 71% 29.88 in 10.0 mi West 4.6 mph - N/A   Scattered Clouds